Back to catalog

FENGYUN 1C DEB

AliveSSO
NORAD 31041·DEBRIS·🇨🇳 China

Launched May 10, 1999 from Taiyuan Satellite Launch Center

Loading…

Next Passes (next 24 hours)

TLE

FreshSource: Space-Track

Epoch: Sep 13, 2026, 08:21 UTC

1 31041U 99025BEK 26256.34843774  .00002256  00000-0  10479-2 0  9993
2 31041  99.1913 300.1685 0084094 261.4240  97.7399 14.19879102993849

Track FENGYUN 1C DEB in real time with AllMySat

Download on the App Store